Location: Aufkirchen
(47.9603°N, 11.3653°E)
Time: 17:28:08
(UTC+01:00)

Transit 2A - Pass Details

Date: 04 December 2020
Orbit: 599 x 960 km, 66.7° (Epoch: 26 January)

Event Time Altitude Azimuth Distance (km) Brightness Sun altitude
Rises 16:58:37 0° 223° (SW) 3,620 11.1 -6.1°
Reaches altitude 10° 17:01:15 10° 227° (SW) 2,661 10.3 -6.5°
Maximum altitude 17:07:27 64° 308° (NW) 1,003 6.8 -7.4°
Drops below altitude 10° 17:13:16 10° 31° (NNE) 2,498 8.2 -8.3°
Enters shadow 17:14:27 - 33° (NNE) 2,927 8.5 -8.4°
Sets 17:15:41 0° 34° (NE) 3,384 - -8.6°
